Flag for Canada Weather past 2 weeks in East Hants, Nova Scotia, Canada

Now
66 °F

Passing clouds.


Feels Like: 66 °F
Forecast: 55 / 66 °F
Wind: 12 mph from Southwest

Location: Halifax International Airport

Current Time: Aug 31, 2015 at 9:35:28 PM

Latest Report: Aug 31, 2015 at 9:00 PM


Visibility: 15 mi

Pressure: 29.70 "Hg

Humidity: 94%

Dew point: 64 °F

Location of East HantsLocation

Historic Weather in East Hants — Graph

°F

East Hants temperature yesterday

Maximum temperature yesterday: 75 °F (at 3:00 PM)
Minimum temperature yesterday: 59 °F (at 7:00 AM)
Average temperature yesterday: 67 °F

Past Weeks' High & Low Weather Summary

 TemperatureHumidityPressure
High84 °F (Aug 17, 2:00 PM)100% (Aug 18, 3:00 AM)30.26 "Hg (Aug 18, 3:00 AM)
Low59 °F (Aug 28, 4:00 AM)42% (Aug 29, 4:00 PM)29.70 "Hg (Aug 31, 8:00 PM)
Average69 °F85%30.05 "Hg
* Reported Aug 16 8:00 PM — Aug 31 8:00 PM, East Hants, Weather by CustomWeather, © 2015

Note: Actual official high and low records may vary slightly from our data, if they occured in-between our weather recording intervals... More about our weather records

Advertising

East Hants weather history for previous 24 hours

 ConditionsComfort  
Time TempWeatherWind HumidityBarometerVisibility
8:00 PM
Mon, Aug 31
68 °FPassing clouds.10 mph88%29.70 "Hg15 mi
7:00 PM70 °FScattered clouds.13 mph83%29.70 "Hg15 mi
6:00 PM72 °FScattered clouds.14 mph78%29.71 "Hg15 mi
5:00 PM73 °FBroken clouds.17 mph69%29.73 "Hg15 mi
3:00 PM77 °FBroken clouds.16 mph65%29.78 "Hg15 mi
2:00 PM79 °FBroken clouds.17 mph54%29.80 "Hg15 mi
1:00 PM77 °FBroken clouds.16 mph57%29.83 "Hg15 mi
12:00 PM75 °FPassing clouds.12 mph65%29.86 "Hg15 mi
11:00 AM72 °FPassing clouds.10 mph73%29.88 "Hg15 mi
10:00 AM68 °FPassing clouds.8 mph83%29.89 "Hg15 mi
9:00 AM63 °FBroken clouds.8 mph94%29.91 "Hg7 mi
8:00 AM61 °FFog.9 mph100%29.92 "Hg0 mi
7:49 AM61 °FFog.12 mph100%29.92 "Hg1 mi
7:00 AM61 °FFog.9 mph94%29.92 "Hg15 mi
6:00 AM61 °FPassing clouds.6 mph94%29.93 "Hg15 mi
5:00 AM61 °FClear.6 mph94%29.93 "Hg15 mi
4:00 AM61 °FClear.6 mph94%29.93 "Hg15 mi
3:00 AM63 °FPassing clouds.6 mph88%29.95 "Hg15 mi
2:00 AM64 °FPassing clouds.6 mph83%29.96 "Hg15 mi
1:00 AM64 °FClear.7 mph94%29.97 "Hg12 mi
12:00 AM64 °FClear.9 mph94%29.97 "Hg12 mi
11:00 PM
Sun, Aug 30
64 °FClear.6 mph94%29.98 "Hg15 mi
10:00 PM66 °FClear.7 mph88%29.98 "Hg15 mi
9:00 PM66 °FClear.7 mph88%29.98 "Hg15 mi
Weather by CustomWeather, © 2015

See weather overviewHow to use our weather pages